Weather History for KW29 - December, 2012

Change the Weather History Date:

Monday, December 24, 2012

  Actual Average (KESN) Record (KESN)
Temperature  
Mean Temperature 36 °F -  
Max Temperature 39 °F 41 °F 64 °F (2014)
Min Temperature 32 °F 26 °F 10 °F (1960)
Degree Days  
Heating Degree Days 30    
Moisture  
Dew Point 31 °F    
Average Humidity 84    
Maximum Humidity 100    
Minimum Humidity 61    
Precipitation  
Precipitation 0.00 in - - ()
Sea Level Pressure  
Sea Level Pressure 30.00 in    
Wind  
Wind Speed 3 mph (ENE)    
Max Wind Speed 10 mph    
Max Gust Speed -    
Visibility 7 miles    
Events      
Averages and records for this station are not official NWS values.
T = Trace of Precipitation, MM = Missing Value Source: NWS Daily Summary

Daily Weather History Graph

Daily Weather History Graph

Search for Another Location

Airport or City:

Trip Planner

Search our weather history database for the weather conditions in past years. The results will help you decide how hot, cold, wet, or windy it might be!

Date:

Astronomy

Dec. 24, 2012 Rise Set
Actual Time 7:22 AM EST 4:48 PM EST
Civil Twilight 6:52 AM EST 5:18 PM EST
Nautical Twilight 6:18 AM EST 5:51 PM EST
Astronomical Twilight 5:46 AM EST 6:24 PM EST
Moon 2:13 PM EST (12/24) 3:59 AM EST (12/24)
Length of Visible Light 10h 26m
Length of Day
9h 26m
Waxing Gibbous, 88% of the Moon is Illuminated
Dec 24
Waxing Gibbous
Dec 28
Full
Jan 4
Last Quarter
Jan 11
New
Jan 18
First Quarter

Hourly Weather History & Observations

Time (EST) Temp. Windchill Dew Point Humidity Pressure Visibility Wind Dir Wind Speed Gust Speed Precip Events Conditions
12:05 AM 33.8 °F - 30.2 °F 87% 29.99 in 10.0 mi Calm Calm - N/A   Clear
12:26 AM 33.8 °F - 30.2 °F 87% 29.99 in 10.0 mi Calm Calm - N/A   Clear
12:47 AM 33.8 °F - 30.2 °F 87% 29.99 in 10.0 mi Calm Calm - N/A   Clear
1:09 AM 33.8 °F - 30.2 °F 87% 30.00 in 10.0 mi Calm Calm - N/A   Clear
1:30 AM 33.8 °F - 28.4 °F 81% 30.00 in 10.0 mi Calm Calm - N/A   Clear
1:51 AM 33.8 °F - 30.2 °F 87% 30.01 in 10.0 mi Calm Calm - N/A   Clear
2:13 AM 32.0 °F 28.7 °F 28.4 °F 87% 30.01 in 10.0 mi NNE 3.5 mph - N/A   Clear
2:34 AM 37.4 °F 33.8 °F 30.2 °F 75% 30.02 in 10.0 mi North 4.6 mph - N/A   Clear
2:55 AM 37.4 °F 33.8 °F 30.2 °F 75% 30.02 in 10.0 mi North 4.6 mph - N/A   Clear
3:16 AM 37.4 °F 33.8 °F 30.2 °F 75% 30.02 in 10.0 mi NNE 4.6 mph - N/A   Clear
3:38 AM 37.4 °F 34.9 °F 30.2 °F 75% 30.02 in 10.0 mi NNE 3.5 mph - N/A   Clear
3:59 AM 37.4 °F 33.8 °F 28.4 °F 70% 30.02 in 10.0 mi NNE 4.6 mph - N/A   Clear
4:20 AM 37.4 °F 34.9 °F 28.4 °F 70% 30.03 in 10.0 mi NNE 3.5 mph - N/A   Clear
4:42 AM 37.4 °F 33.8 °F 26.6 °F 65% 30.02 in 10.0 mi NNE 4.6 mph - N/A   Clear
5:03 AM 37.4 °F 32.8 °F 26.6 °F 65% 30.03 in 10.0 mi NNE 5.8 mph - N/A   Clear
5:24 AM 37.4 °F 33.8 °F 26.6 °F 65% 30.04 in 10.0 mi NNE 4.6 mph - N/A   Clear
5:46 AM 35.6 °F 31.7 °F 26.6 °F 70% 30.05 in 10.0 mi NNE 4.6 mph - N/A   Clear
6:07 AM 35.6 °F 29.9 °F 26.6 °F 70% 30.05 in 10.0 mi NNE 6.9 mph - N/A   Clear
6:28 AM 35.6 °F 29.9 °F 26.6 °F 70% 30.06 in 10.0 mi NNE 6.9 mph - N/A   Clear
6:49 AM 35.6 °F 32.8 °F 26.6 °F 70% 30.07 in 10.0 mi NE 3.5 mph - N/A   Clear
7:11 AM 35.6 °F - 26.6 °F 70% 30.07 in 10.0 mi Calm Calm - N/A   Clear
7:32 AM 35.6 °F 32.8 °F 26.6 °F 70% 30.07 in 10.0 mi ENE 3.5 mph - N/A   Clear
7:53 AM 35.6 °F 32.8 °F 26.6 °F 70% 30.08 in 10.0 mi East 3.5 mph - N/A   Clear
8:15 AM 35.6 °F 31.7 °F 26.6 °F 70% 30.08 in 10.0 mi ESE 4.6 mph - N/A   Clear
8:36 AM 35.6 °F 30.7 °F 26.6 °F 70% 30.07 in 10.0 mi East 5.8 mph - N/A   Clear
8:57 AM 35.6 °F 31.7 °F 26.6 °F 70% 30.08 in 10.0 mi East 4.6 mph - N/A   Clear
9:18 AM 35.6 °F 29.9 °F 26.6 °F 70% 30.09 in 10.0 mi ESE 6.9 mph - N/A   Clear
9:39 AM 35.6 °F 31.7 °F 26.6 °F 70% 30.10 in 10.0 mi ESE 4.6 mph - N/A   Clear
10:01 AM 37.4 °F 32.1 °F 26.6 °F 65% 30.10 in 10.0 mi East 6.9 mph - N/A   Clear
11:05 AM 37.4 °F 32.8 °F 26.6 °F 65% 30.10 in 10.0 mi ESE 5.8 mph - N/A   Clear
11:47 AM 39.2 °F 35.0 °F 26.6 °F 61% 30.07 in 10.0 mi ESE 5.8 mph - N/A   Clear
12:08 PM 39.2 °F - 28.4 °F 65% 30.07 in 10.0 mi Calm Calm - N/A   Scattered Clouds
12:30 PM 39.2 °F 35.0 °F 28.4 °F 65% 30.07 in 10.0 mi SSE 5.8 mph - N/A   Clear
12:51 PM 39.2 °F 35.0 °F 28.4 °F 65% 30.06 in 10.0 mi SSE 5.8 mph - N/A   Clear
1:12 PM 39.2 °F 32.5 °F 30.2 °F 70% 30.05 in 10.0 mi SSE 10.4 mph - N/A   Scattered Clouds
1:33 PM 37.4 °F 33.8 °F 32.0 °F 81% 30.03 in 10.0 mi East 4.6 mph - N/A   Overcast
1:55 PM 35.6 °F 29.9 °F 33.8 °F 93% 30.02 in 7.0 mi East 6.9 mph - N/A   Overcast
2:16 PM 35.6 °F 29.9 °F 33.8 °F 93% 30.02 in 7.0 mi East 6.9 mph - N/A   Overcast
2:58 PM 35.6 °F 31.7 °F 33.8 °F 93% 30.00 in 5.0 mi ENE 4.6 mph - N/A   Overcast
3:20 PM 35.6 °F 29.9 °F 33.8 °F 93% 29.99 in 5.0 mi ENE 6.9 mph - N/A   Overcast
3:41 PM 35.6 °F 30.7 °F 33.8 °F 93% 29.98 in 4.0 mi ENE 5.8 mph - N/A   Overcast
4:02 PM 35.6 °F 29.9 °F 35.6 °F 100% 29.97 in 4.0 mi ENE 6.9 mph - N/A   Overcast
4:23 PM 35.6 °F 28.0 °F 35.6 °F 100% 29.96 in 4.0 mi East 10.4 mph - N/A   Overcast
5:06 PM 35.6 °F 28.0 °F 35.6 °F 100% 29.94 in 4.0 mi ENE 10.4 mph - N/A   Overcast
5:27 PM 35.6 °F 30.7 °F 35.6 °F 100% 29.94 in 5.0 mi ENE 5.8 mph - N/A   Overcast
5:49 PM 35.6 °F 29.9 °F 35.6 °F 100% 29.94 in 5.0 mi East 6.9 mph - N/A   Mostly Cloudy
6:10 PM 35.6 °F 31.7 °F 35.6 °F 100% 29.94 in 5.0 mi ESE 4.6 mph - N/A   Mostly Cloudy
6:31 PM 35.6 °F - 35.6 °F 100% 29.94 in 5.0 mi Calm Calm - N/A   Mostly Cloudy
6:52 PM 35.6 °F - 35.6 °F 100% 29.93 in 3.0 mi Calm Calm - N/A   Overcast
7:14 PM 37.4 °F - 37.4 °F 100% 29.93 in 4.0 mi Calm Calm - N/A   Overcast
7:35 PM 37.4 °F - 37.4 °F 100% 29.93 in 3.0 mi Calm Calm - N/A   Overcast
7:56 PM 37.4 °F - 37.4 °F 100% 29.93 in 4.0 mi Calm Calm - N/A   Overcast
8:17 PM 37.4 °F - 37.4 °F 100% 29.92 in 3.0 mi Calm Calm - N/A   Overcast
8:39 PM 37.4 °F - 37.4 °F 100% 29.92 in 4.0 mi Calm Calm - N/A   Overcast
9:00 PM 37.4 °F - 37.4 °F 100% 29.92 in 3.0 mi Calm Calm - N/A   Overcast
9:21 PM 37.4 °F - 37.4 °F 100% 29.91 in 2.5 mi Calm Calm - N/A   Overcast
9:42 PM 37.4 °F - 37.4 °F 100% 29.92 in 2.5 mi Calm Calm - N/A   Overcast
10:04 PM 37.4 °F 34.9 °F 37.4 °F 100% 29.91 in 2.0 mi North 3.5 mph - N/A   Overcast
10:25 PM 37.4 °F - 37.4 °F 100% 29.91 in 2.5 mi Calm Calm - N/A   Overcast
10:46 PM 37.4 °F - 37.4 °F 100% 29.91 in 2.5 mi Calm Calm - N/A   Overcast
11:08 PM 37.4 °F - 37.4 °F 100% 29.90 in 2.0 mi Calm Calm - N/A   Overcast
11:50 PM 37.4 °F - 37.4 °F 100% 29.91 in 2.0 mi Calm Calm - N/A   Overcast